Location: Newark
(52.9300°N, 3.3400°W)
Time: 12:42:55
(UTC+00:00)

ISS - Pass Details

Date: 11 March 2021
Orbit: 418 x 422 km, 51.6° (Epoch: 17 April)

Event Time Altitude Azimuth Distance (km) Brightness Sun altitude
Exits shadow 04:00:26 13° 135° (SE) 1,338 -1.0 -23.7°
Drops below altitude 10° 04:00:51 10° 132° (SE) 1,496 -0.7 -23.7°
Sets 04:03:07 0° 124° (SE) 2,403 0.5 -23.4°
